Location: Colebrook
(42.0017°N, 73.0973°W)
Time: 22:34:40
(UTC-04:00)

Envisat - Pass Details

Date: 02 October 2021
Orbit: 764 x 766 km, 98.2° (Epoch: 22 October)

Event Time Altitude Azimuth Distance (km) Brightness Sun altitude
Rises 05:37:47 0° 18° (NNE) 3,239 6.6 -14.3°
Reaches altitude 10° 05:40:11 10° 24° (NNE) 2,308 5.9 -13.9°
Maximum altitude 05:45:06 49° 99° (E) 976 4.0 -13.0°
Drops below altitude 10° 05:50:00 10° 175° (S) 2,292 5.5 -12.1°
Sets 05:52:22 0° 180° (S) 3,213 6.2 -11.7°
